period_start,C,m1,H,J0,J1,J2,J3,J4,J5,JA,JB,JC,JD,JJ,JK,JN,#
2015-12-07 00:03:58,0.21,0.00,0.00,17.96,22.42,26.19,14.89,49.46,1022.96,2052.29,3625.16,3244.43,3624.07,599.86,609.81,0.02,0000 0000 0000 0000 000000
2015-12-07 00:08:59,0.21,0.00,0.00,17.95,22.42,26.18,14.97,49.58,1022.96,2052.16,3619.99,3241.23,3620.52,599.93,610.15,0.07,0000 0000 0000 0000 000000
2015-12-07 00:14:00,0.21,0.01,0.00,17.97,22.42,26.16,14.94,49.63,1022.96,2052.11,3615.58,3238.36,3617.35,599.85,609.94,0.12,0000 0000 0000 0000 000000
2015-12-07 00:19:02,0.20,0.02,0.00,17.99,22.42,26.15,14.95,49.64,1022.96,2052.06,3611.24,3235.42,3613.93,599.96,610.14,0.17,0000 0000 0000 0000 000000
2015-12-07 00:24:03,0.19,0.03,0.00,18.00,22.42,26.13,14.99,49.65,1022.96,2052.06,3607.13,3232.44,3610.47,600.15,610.21,0.22,0000 0000 0000 0000 000000
2015-12-07 00:29:05,0.19,0.04,0.00,17.99,22.42,26.07,14.88,49.66,1022.96,2052.03,3603.00,3229.51,3607.16,599.71,609.82,0.27,0000 0000 0000 0000 000000
2015-12-07 00:34:06,0.18,0.05,0.00,17.98,22.42,26.07,14.96,49.63,1022.96,2052.03,3598.96,3226.67,3603.84,600.12,610.26,0.32,0000 0000 0000 0000 000000
2015-12-07 00:39:07,0.17,0.06,0.00,18.00,22.41,26.10,14.95,49.62,1022.95,2052.03,3595.00,3223.86,3600.67,599.93,610.06,0.37,0000 0000 0000 0000 000000
2015-12-07 00:44:09,0.18,0.07,0.00,18.02,22.40,26.11,15.01,49.77,1022.93,2052.03,3591.01,3220.95,3597.36,600.18,610.18,0.42,0000 0000 0000 0000 000000
2015-12-07 00:49:10,0.17,0.08,0.00,18.00,22.39,26.06,14.95,49.63,1022.93,2052.01,3586.93,3218.13,3594.23,600.17,610.20,0.47,0000 0000 0000 0000 000000
2015-12-07 00:54:11,0.17,0.08,0.00,17.99,22.39,26.13,14.98,49.73,1022.88,2052.01,3582.77,3215.28,3591.19,600.29,610.45,0.52,0000 0000 0000 0000 000000
2015-12-07 00:59:13,0.17,0.09,0.00,17.99,22.39,26.12,14.93,49.68,1022.84,2052.02,3578.67,3212.43,3588.14,600.00,609.99,0.57,0000 0000 0000 0000 000000
2015-12-07 01:04:14,0.18,0.10,0.00,17.98,22.37,26.12,14.92,49.79,1022.80,2052.01,3574.60,3209.49,3584.88,599.99,609.93,0.62,0000 0000 0000 0000 000000
2015-12-07 01:09:15,0.17,0.11,0.00,17.97,22.37,26.19,14.99,49.82,1022.76,2052.01,3570.59,3206.58,3581.80,600.14,610.30,0.67,0000 0000 0000 0000 000000
2015-12-07 01:14:17,0.17,0.12,0.00,17.93,22.37,26.14,15.04,49.83,1022.85,2052.02,3566.52,3203.77,3578.70,600.08,610.19,0.72,0000 0000 0000 0000 000000
2015-12-07 01:19:18,0.18,0.13,0.00,17.92,22.36,26.12,14.90,49.71,1022.80,2052.01,3562.40,3200.87,3575.44,599.94,610.06,0.77,0000 0000 0000 0000 000000
2015-12-07 01:24:19,0.17,0.14,0.00,17.95,22.35,26.09,15.02,49.73,1022.74,2052.02,3558.40,3198.16,3572.31,600.22,610.24,0.82,0000 0000 0000 0000 000000
2015-12-07 01:29:21,0.18,0.15,0.00,17.92,22.34,26.04,14.90,49.79,1022.67,2052.03,3554.28,3195.30,3569.23,599.76,609.83,0.87,0000 0000 0000 0000 000000
2015-12-07 01:34:22,0.17,0.16,0.00,17.89,22.34,26.11,14.92,49.81,1022.56,2052.03,3550.28,3192.45,3566.05,599.77,609.83,0.92,0000 0000 0000 0000 000000
2015-12-07 01:39:23,0.18,0.16,0.00,17.87,22.34,26.08,14.99,49.88,1022.54,2052.04,3546.19,3189.63,3562.98,600.26,610.33,0.97,0000 0000 0000 0000 000000
2015-12-07 01:44:24,0.18,0.17,0.00,17.88,22.34,26.04,14.95,49.88,1022.55,2052.04,3542.35,3186.74,3559.61,599.98,610.05,1.02,0000 0000 0000 0000 000000
2015-12-07 01:49:26,0.16,0.18,0.00,17.85,22.33,26.09,15.01,49.79,1022.53,2052.08,3538.60,3184.04,3556.45,600.10,610.19,1.07,0000 0000 0000 0000 000000
2015-12-07 01:54:27,0.17,0.19,0.00,17.83,22.32,26.13,14.91,49.85,1022.52,2052.04,3534.59,3181.26,3553.54,599.90,609.94,1.12,0000 0000 0000 0000 000000
2015-12-07 01:59:28,0.17,0.20,0.00,17.83,22.32,26.07,14.97,49.81,1022.49,2052.06,3530.54,3178.46,3550.48,599.96,610.10,1.17,0000 0000 0000 0000 000000
2015-12-07 02:04:29,0.19,0.21,0.00,17.85,22.32,26.07,14.98,49.93,1022.48,2052.12,3526.35,3175.54,3547.29,599.98,610.04,1.22,0000 0000 0000 0000 000000
2015-12-07 02:09:31,0.20,0.22,0.00,17.84,22.30,26.14,14.86,49.79,1022.48,2052.32,3522.23,3172.66,3544.17,599.91,609.99,1.27,0000 0000 0000 0000 000000
2015-12-07 02:14:32,0.18,0.23,0.00,17.83,22.30,26.08,14.97,49.90,1022.48,2052.49,3518.52,3169.84,3540.86,599.96,610.20,1.32,0000 0000 0000 0000 000000
2015-12-07 02:19:33,0.17,0.24,0.00,17.80,22.29,26.03,14.97,49.94,1022.47,2052.58,3514.87,3167.12,3537.69,600.18,610.42,1.37,0000 0000 0000 0000 000000
2015-12-07 02:24:34,0.15,0.25,0.00,17.79,22.29,26.02,14.97,49.88,1022.43,2052.50,3511.01,3164.36,3534.74,600.26,610.44,1.42,0000 0000 0000 0000 000000
2015-12-07 02:29:35,0.17,0.26,0.00,17.79,22.29,26.03,14.98,49.90,1022.45,2052.38,3507.23,3161.62,3531.66,599.88,610.07,1.47,0000 0000 0000 0000 000000
2015-12-07 02:34:36,0.15,0.26,0.00,17.79,22.29,26.05,14.95,49.94,1022.43,2052.29,3503.36,3158.88,3528.67,600.00,610.06,1.52,0000 0000 0000 0000 000000
2015-12-07 02:39:37,0.17,0.27,0.00,17.76,22.27,26.01,15.08,49.97,1022.39,2052.24,3499.76,3156.11,3525.45,600.86,611.10,1.57,0000 0000 0000 0000 000000
2015-12-07 02:44:39,0.16,0.28,0.00,17.71,22.27,26.07,14.97,49.92,1022.30,2052.25,3496.15,3153.47,3522.46,599.86,610.13,1.63,0000 0000 0000 0000 000000
2015-12-07 02:49:40,0.15,0.29,0.00,17.73,22.27,26.06,14.96,49.95,1022.41,2052.25,3492.54,3150.87,3519.61,599.97,610.21,1.68,0000 0000 0000 0000 000000
2015-12-07 02:54:41,0.18,0.30,0.00,17.74,22.26,25.98,14.96,49.84,1022.27,2052.36,3488.94,3148.26,3516.93,599.67,609.91,1.73,0000 0000 0000 0000 000000
2015-12-07 02:59:43,0.18,0.31,0.00,17.72,22.25,26.02,14.98,49.94,1022.26,2052.65,3485.37,3145.72,3514.03,600.28,610.37,1.78,0000 0000 0000 0000 000000
2015-12-07 03:04:44,0.14,0.32,0.00,17.74,22.24,25.98,14.96,49.85,1022.21,2052.48,3481.86,3143.08,3510.97,599.96,610.12,1.83,0000 0000 0000 0000 000000
2015-12-07 03:09:45,0.17,0.32,0.00,17.69,22.23,25.99,15.06,49.93,1022.14,2052.57,3478.17,3140.50,3508.21,600.23,610.35,1.88,0000 0000 0000 0000 000000
2015-12-07 03:14:46,0.19,0.33,0.00,17.68,22.22,25.96,14.90,49.88,1022.09,2052.88,3474.53,3138.02,3505.48,600.00,610.16,1.93,0000 0000 0000 0000 000000
2015-12-07 03:19:47,0.16,0.34,0.00,17.65,22.22,25.93,14.96,49.91,1022.05,2052.95,3471.04,3135.41,3502.49,599.78,609.97,1.98,0000 0000 0000 0000 000000
2015-12-07 03:24:49,0.15,0.35,0.00,17.63,22.20,25.93,14.97,49.96,1022.02,2052.91,3467.41,3132.96,3499.63,600.08,610.34,2.03,0000 0000 0000 0000 000000
2015-12-07 03:29:50,0.17,0.36,0.00,17.63,22.19,25.93,14.98,49.98,1022.03,2052.96,3463.86,3130.38,3496.77,600.06,610.34,2.08,0000 0000 0000 0000 000000
2015-12-07 03:34:51,0.16,0.37,0.00,17.64,22.19,25.90,14.97,49.98,1022.06,2052.96,3460.54,3127.83,3493.86,599.65,609.95,2.13,0000 0000 0000 0000 000000
2015-12-07 03:39:52,0.16,0.38,0.00,17.64,22.17,25.91,14.99,49.96,1022.05,2052.95,3457.08,3125.31,3490.98,599.95,610.18,2.18,0000 0000 0000 0000 000000
2015-12-07 03:44:53,0.15,0.38,0.00,17.60,22.17,25.95,14.96,49.98,1022.04,2052.97,3453.70,3122.88,3488.38,599.98,610.33,2.23,0000 0000 0000 0000 000000
2015-12-07 03:49:54,0.16,0.39,0.00,17.59,22.15,25.94,14.91,49.91,1022.01,2052.99,3450.26,3120.38,3485.59,600.11,610.40,2.28,0000 0000 0000 0000 000000
2015-12-07 03:54:55,0.16,0.40,0.00,17.61,22.14,25.91,14.95,49.92,1022.01,2052.98,3446.97,3117.79,3482.49,599.87,610.12,2.33,0000 0000 0000 0000 000000
2015-12-07 03:59:57,0.16,0.41,0.00,17.57,22.13,25.89,15.05,50.08,1022.01,2052.98,3443.60,3115.25,3479.53,600.09,610.57,2.38,0000 0000 0000 0000 000000
2015-12-07 04:04:58,0.15,0.42,0.00,17.55,22.12,25.87,14.96,50.02,1022.00,2052.99,3440.19,3112.77,3476.85,600.24,610.68,2.43,0000 0000 0000 0000 000000
2015-12-07 04:09:59,0.16,0.42,0.00,17.55,22.11,25.84,14.91,49.98,1022.00,2052.98,3436.67,3110.29,3474.13,600.03,610.47,2.48,0000 0000 0000 0000 000000
2015-12-07 04:15:01,0.16,0.43,0.00,17.53,22.09,25.82,15.00,50.00,1022.00,2052.98,3433.27,3107.74,3471.22,600.01,610.40,2.53,0000 0000 0000 0000 000000
2015-12-07 04:20:02,0.15,0.44,0.00,17.49,22.08,25.80,14.96,50.03,1022.01,2052.98,3429.75,3105.25,3468.50,600.02,610.56,2.58,0000 0000 0000 0000 000000
2015-12-07 04:25:03,0.16,0.45,0.00,17.49,22.07,25.75,14.91,49.97,1022.00,2052.99,3426.34,3102.74,3465.76,599.54,610.16,2.63,0000 0000 0000 0000 000000
2015-12-07 04:30:05,0.16,0.46,0.00,17.46,22.04,25.77,14.94,50.11,1021.99,2052.99,3422.74,3100.19,3463.05,599.70,610.30,2.68,0000 0000 0000 0000 000000
2015-12-07 04:35:06,0.16,0.46,0.00,17.49,22.04,25.77,14.97,50.08,1021.99,2052.99,3419.35,3097.70,3460.17,599.99,610.60,2.73,0000 0000 0000 0000 000000
2015-12-07 04:40:07,0.16,0.47,0.00,17.48,22.02,25.71,14.96,49.99,1021.99,2052.99,3415.87,3095.15,3457.31,599.75,610.33,2.78,0000 0000 0000 0000 000000
2015-12-07 04:45:08,0.15,0.48,0.00,17.49,22.02,25.78,15.04,49.99,1022.01,2052.99,3412.66,3092.72,3454.62,600.34,610.95,2.83,0000 0000 0000 0000 000000
2015-12-07 04:50:09,0.15,0.49,0.00,17.48,22.01,25.77,15.00,49.98,1022.00,2053.00,3409.36,3090.35,3452.06,600.02,610.64,2.88,0000 0000 0000 0000 000000
2015-12-07 04:55:11,0.16,0.50,0.00,17.48,21.99,25.73,14.97,49.98,1022.00,2053.02,3405.92,3087.88,3449.33,599.90,610.35,2.93,0000 0000 0000 0000 000000
2015-12-07 05:00:12,0.16,0.50,0.00,17.45,21.99,25.76,14.98,49.98,1022.04,2053.02,3402.77,3085.40,3446.36,600.02,610.76,2.98,0000 0000 0000 0000 000000
2015-12-07 05:05:13,0.16,0.51,0.00,17.45,21.99,25.71,14.97,49.88,1022.06,2053.01,3399.51,3082.93,3443.57,599.64,610.31,3.03,0000 0000 0000 0000 000000
2015-12-07 05:10:14,0.15,0.52,0.00,17.47,21.97,25.73,14.95,49.84,1022.17,2053.01,3396.13,3080.51,3440.89,599.93,610.58,3.08,0000 0000 0000 0000 000000
2015-12-07 05:15:16,0.16,0.53,0.00,17.45,21.97,25.72,14.89,49.90,1022.28,2053.03,3392.68,3078.01,3438.24,599.85,610.62,3.13,0000 0000 0000 0000 000000
2015-12-07 05:20:17,0.15,0.54,0.00,17.44,21.95,25.70,14.97,49.98,1022.37,2053.03,3389.49,3075.50,3435.38,600.00,610.85,3.18,0000 0000 0000 0000 000000
2015-12-07 05:25:18,0.15,0.54,0.00,17.42,21.94,25.70,14.95,49.84,1022.29,2053.02,3386.31,3073.15,3432.60,599.85,610.72,3.23,0000 0000 0000 0000 000000
2015-12-07 05:30:19,0.15,0.55,0.00,17.40,21.93,25.66,15.05,50.02,1022.36,2053.08,3383.18,3070.79,3429.82,600.00,611.00,3.28,0000 0000 0000 0000 000000
2015-12-07 05:35:21,0.15,0.56,0.00,17.37,21.92,25.64,14.92,49.97,1022.40,2053.10,3379.86,3068.45,3427.26,600.02,611.22,3.33,0000 0000 0000 0000 000000
2015-12-07 05:40:22,0.16,0.57,0.00,17.22,21.90,25.61,14.98,50.05,1022.31,2053.13,3376.43,3066.07,3424.70,599.96,611.25,3.38,0000 0000 0000 0000 000000
2015-12-07 05:45:23,0.19,0.58,0.00,17.05,21.88,25.64,14.96,49.93,1022.25,2053.36,3372.98,3063.66,3422.09,599.89,611.45,3.43,0000 0000 0000 0000 000000
2015-12-07 05:50:24,0.20,0.59,0.00,17.01,21.86,25.61,15.08,49.87,1022.29,2053.79,3369.58,3061.27,3419.53,600.24,611.95,3.48,0000 0000 0000 0000 000000
2015-12-07 05:55:25,0.17,0.60,0.00,17.06,21.84,25.64,14.98,49.98,1022.08,2053.94,3366.16,3058.82,3416.87,600.06,611.53,3.53,0000 0000 0000 0000 000000
2015-12-07 06:00:26,0.15,0.60,0.00,17.07,21.82,25.61,15.03,50.06,1022.07,2053.97,3362.86,3056.41,3414.10,600.03,611.49,3.58,0000 0000 0000 0000 000000
2015-12-07 06:05:27,0.15,0.61,0.00,16.99,21.80,25.58,15.08,50.06,1022.08,2053.98,3359.83,3054.09,3411.22,600.11,611.85,3.63,0000 0000 0000 0000 000000
2015-12-07 06:10:29,0.15,0.62,0.00,16.69,21.79,25.53,15.04,50.08,1022.02,2053.98,3356.59,3051.68,3408.64,600.19,612.43,3.68,0000 0000 0000 0000 000000
2015-12-07 06:15:30,0.15,0.63,0.00,16.29,21.76,25.61,15.12,50.15,1022.03,2053.98,3353.46,3049.32,3405.97,600.33,613.44,3.73,0000 0000 0000 0000 000000
2015-12-07 06:20:31,0.15,0.64,0.00,16.10,21.73,25.57,15.07,50.18,1022.04,2053.99,3350.28,3046.98,3403.31,599.55,613.01,3.78,0000 0000 0000 0000 000000
2015-12-07 06:25:32,0.14,0.64,0.00,16.05,21.69,25.54,15.10,50.22,1022.02,2053.99,3347.11,3044.77,3400.84,599.70,613.31,3.83,0000 0000 0000 0000 000000
2015-12-07 06:30:34,0.14,0.65,0.00,15.99,21.65,25.44,15.19,50.42,1022.01,2054.01,3343.99,3042.56,3398.46,600.42,614.14,3.88,0000 0000 0000 0000 000000
2015-12-07 06:35:35,0.15,0.66,0.00,15.94,21.60,25.41,15.16,50.47,1022.01,2054.07,3341.06,3040.38,3395.95,600.10,613.90,3.93,0000 0000 0000 0000 000000
2015-12-07 06:40:36,0.20,0.67,0.00,15.87,21.55,25.32,15.12,50.33,1022.00,2054.50,3338.03,3038.18,3393.54,599.87,613.85,3.98,0000 0000 0000 0000 000000
2015-12-07 06:45:37,0.17,0.68,0.00,15.86,21.50,25.25,15.12,50.31,1021.99,2054.94,3334.96,3036.05,3391.28,599.64,613.85,4.03,0000 0000 0000 0000 000000
2015-12-07 06:50:39,0.15,0.69,0.00,15.87,21.45,25.17,15.12,50.27,1021.99,2054.98,3331.84,3033.86,3389.07,600.21,614.21,4.08,0000 0000 0000 0000 000000
2015-12-07 06:55:40,0.14,0.69,0.00,15.92,21.40,25.07,15.10,50.21,1021.99,2054.99,3328.82,3031.65,3386.47,600.13,613.96,4.14,0000 0000 0000 0000 000000
2015-12-07 07:00:41,0.14,0.70,0.00,15.96,21.34,25.01,15.15,50.25,1021.99,2055.01,3325.93,3029.43,3383.99,600.21,614.02,4.19,0000 0000 0000 0000 000000
2015-12-07 07:05:42,0.18,0.71,0.00,15.96,21.29,24.98,15.12,50.18,1021.99,2055.21,3322.86,3027.28,3381.49,600.02,613.84,4.24,0000 0000 0000 0000 000000
2015-12-07 07:10:44,0.20,0.72,0.00,15.90,21.24,24.92,15.08,50.16,1021.99,2055.82,3319.68,3025.10,3379.24,600.08,614.01,4.29,0000 0000 0000 0000 000000
2015-12-07 07:15:45,0.15,0.73,0.00,15.91,21.18,24.86,15.15,50.20,1021.99,2055.98,3316.51,3022.92,3376.83,600.14,614.04,4.34,0000 0000 0000 0000 000000
2015-12-07 07:20:47,0.14,0.74,0.00,15.95,21.13,24.83,15.06,50.17,1021.99,2055.99,3313.42,3020.73,3374.41,600.14,614.06,4.39,0000 0000 0000 0000 000000
2015-12-07 07:25:48,0.14,0.74,0.00,15.98,21.08,24.74,15.02,50.24,1021.99,2055.99,3310.43,3018.56,3372.01,600.09,613.86,4.44,0000 0000 0000 0000 000000
2015-12-07 07:30:49,0.14,0.75,0.00,16.00,21.03,24.73,15.10,50.24,1021.99,2056.08,3307.46,3016.55,3369.80,600.00,613.70,4.49,0000 0000 0000 0000 000000
2015-12-07 07:35:51,0.20,0.76,0.00,16.01,20.99,24.68,15.08,50.22,1021.99,2056.67,3304.54,3014.50,3367.63,600.18,613.81,4.54,0000 0000 0000 0000 000000
2015-12-07 07:40:52,0.15,0.77,0.00,15.99,20.95,24.62,15.05,50.17,1021.99,2056.96,3301.67,3012.40,3365.25,599.93,613.56,4.59,0000 0000 0000 0000 000000
2015-12-07 07:45:53,0.13,0.78,0.00,16.00,20.91,24.62,15.02,50.19,1021.99,2056.99,3298.81,3010.35,3362.92,599.94,613.63,4.64,0000 0000 0000 0000 000000
2015-12-07 07:50:54,0.12,0.78,0.00,15.95,20.88,24.57,15.12,50.23,1021.98,2056.99,3296.02,3008.45,3360.94,600.15,613.95,4.69,0000 0000 0000 0000 000000
2015-12-07 07:55:55,0.14,0.79,0.00,15.89,20.85,24.53,15.07,50.28,1021.99,2057.01,3293.13,3006.61,3358.65,600.14,614.06,4.74,0000 0000 0000 0000 000000
2015-12-07 08:00:56,0.16,0.80,0.00,15.94,20.82,24.44,15.07,50.17,1021.99,2057.19,3290.29,3004.59,3356.42,599.88,613.74,4.79,0000 0000 0000 0000 000000
2015-12-07 08:05:57,0.16,0.81,0.00,16.00,20.79,24.49,15.04,50.23,1021.99,2057.47,3287.54,3002.51,3354.02,599.81,613.43,4.84,0000 0000 0000 0000 000000
2015-12-07 08:10:58,0.16,0.81,0.00,16.04,20.77,24.49,15.06,50.20,1021.99,2057.78,3284.70,3000.47,3351.73,599.98,613.62,4.89,0000 0000 0000 0000 000000
2015-12-07 08:16:00,0.14,0.82,0.00,16.04,20.74,24.47,15.04,50.20,1021.99,2057.97,3281.91,2998.51,3349.53,599.85,613.47,4.94,0000 0000 0000 0000 000000
2015-12-07 08:21:01,0.14,0.83,0.00,16.03,20.72,24.45,15.04,50.26,1021.99,2057.98,3279.01,2996.39,3347.20,599.85,613.47,4.99,0000 0000 0000 0000 000000
2015-12-07 08:26:02,0.14,0.84,0.00,16.03,20.71,24.45,15.07,50.34,1022.01,2057.99,3276.22,2994.29,3344.90,600.10,613.91,5.04,0000 0000 0000 0000 000000
2015-12-07 08:31:04,0.14,0.84,0.00,16.00,20.69,24.44,15.04,50.34,1022.01,2057.99,3273.32,2992.20,3342.53,599.84,613.53,5.09,0000 0000 0000 0000 000000
2015-12-07 08:36:05,0.15,0.85,0.00,15.94,20.67,24.39,15.03,50.30,1022.01,2057.99,3270.34,2990.04,3340.19,600.02,613.85,5.14,0000 0000 0000 0000 000000
2015-12-07 08:41:06,0.14,0.86,0.00,15.96,20.66,24.37,15.11,50.27,1022.05,2057.99,3267.40,2987.94,3337.84,600.20,613.97,5.19,0000 0000 0000 0000 000000
2015-12-07 08:46:07,0.14,0.87,0.00,16.00,20.64,24.39,15.05,50.23,1022.04,2058.00,3264.88,2985.79,3335.16,599.94,613.49,5.24,0000 0000 0000 0000 000000
2015-12-07 08:51:08,0.13,0.87,0.00,15.99,20.63,24.39,15.07,50.13,1022.01,2058.00,3262.12,2983.70,3332.94,599.57,613.20,5.29,0000 0000 0000 0000 000000
2015-12-07 08:56:09,0.14,0.88,0.00,15.99,20.62,24.35,15.09,50.23,1022.01,2058.00,3259.32,2981.55,3330.47,599.93,613.65,5.34,0000 0000 0000 0000 000000
2015-12-07 09:01:11,0.13,0.89,0.00,15.97,20.59,24.36,15.01,50.04,1022.01,2058.01,3256.55,2979.50,3328.21,599.63,613.42,5.39,0000 0000 0000 0000 000000
2015-12-07 09:06:13,0.14,0.89,0.00,15.99,20.58,24.37,15.09,50.17,1021.99,2058.02,3253.67,2977.47,3326.10,600.39,614.07,5.44,0000 0000 0000 0000 000000
2015-12-07 09:11:14,0.14,0.90,0.00,16.02,20.57,24.34,15.06,50.10,1021.99,2058.03,3250.92,2975.45,3323.82,600.07,613.75,5.49,0000 0000 0000 0000 000000
2015-12-07 09:16:15,0.14,0.91,0.00,15.97,20.54,24.32,15.02,50.10,1022.00,2058.03,3248.15,2973.31,3321.43,599.76,613.59,5.54,0000 0000 0000 0000 000000
2015-12-07 09:21:16,0.14,0.92,0.00,16.01,20.53,24.33,14.97,50.04,1021.99,2058.08,3245.31,2971.30,3319.16,599.70,613.41,5.59,0000 0000 0000 0000 000000
2015-12-07 09:26:18,0.15,0.92,0.00,16.02,20.52,24.27,15.06,49.98,1021.99,2058.10,3242.38,2969.19,3316.78,599.89,613.54,5.64,0000 0000 0000 0000 000000
2015-12-07 09:31:19,0.16,0.93,0.00,16.03,20.50,24.29,15.11,50.12,1021.99,2058.24,3239.47,2967.04,3314.39,600.27,613.81,5.69,0000 0000 0000 0000 000000
2015-12-07 09:36:20,0.17,0.94,0.00,16.01,20.49,24.35,15.04,49.91,1021.99,2058.44,3236.54,2964.90,3312.06,600.01,613.77,5.74,0000 0000 0000 0000 000000
2015-12-07 09:41:21,0.16,0.95,0.00,15.98,20.47,24.25,15.11,49.99,1021.99,2058.73,3233.53,2962.73,3309.70,600.39,614.13,5.79,0000 0000 0000 0000 000000
2015-12-07 09:46:22,0.17,0.96,0.00,15.98,20.47,24.26,15.12,50.04,1021.99,2058.93,3230.57,2960.59,3307.32,600.30,614.04,5.84,0000 0000 0000 0000 000000
2015-12-07 09:51:24,0.15,0.96,0.00,15.93,20.45,24.24,15.03,49.88,1021.99,2058.95,3227.57,2958.44,3304.95,599.83,613.69,5.89,0000 0000 0000 0000 000000
2015-12-07 09:56:25,0.14,0.97,0.00,15.92,20.44,24.24,15.01,49.97,1022.00,2058.97,3224.69,2956.34,3302.62,599.96,613.71,5.94,0000 0000 0000 0000 000000
2015-12-07 10:01:26,0.14,0.98,0.00,15.97,20.44,24.27,15.16,50.13,1021.99,2058.98,3221.76,2954.21,3300.30,600.04,613.76,5.99,0000 0000 0000 0000 000000
2015-12-07 10:06:28,0.15,0.99,0.00,16.00,20.43,24.21,15.03,49.92,1021.99,2058.98,3218.81,2952.06,3297.82,600.01,613.66,6.04,0000 0000 0000 0000 000000
2015-12-07 10:11:29,0.15,1.00,0.00,16.02,20.42,24.22,15.08,50.02,1022.01,2058.99,3215.86,2949.86,3295.47,600.08,613.69,6.09,0000 0000 0000 0000 000000
2015-12-07 10:16:30,0.14,1.00,0.00,15.99,20.42,24.21,15.06,50.13,1022.01,2058.99,3213.09,2947.73,3292.99,600.07,613.74,6.14,0000 0000 0000 0000 000000
2015-12-07 10:21:31,0.15,1.01,0.00,15.99,20.42,24.26,15.06,50.03,1022.02,2058.99,3210.21,2945.55,3290.53,599.72,613.33,6.19,0000 0000 0000 0000 000000
2015-12-07 10:26:33,0.14,1.02,0.00,15.97,20.40,24.20,15.05,50.07,1022.01,2058.98,3207.20,2943.49,3288.20,599.86,613.64,6.24,0000 0000 0000 0000 000000
2015-12-07 10:31:34,0.15,1.03,0.00,15.90,20.39,24.21,15.02,50.08,1021.99,2058.98,3204.19,2941.32,3285.85,599.68,613.57,6.29,0000 0000 0000 0000 000000
2015-12-07 10:36:35,0.15,1.03,0.00,15.87,20.39,24.23,15.02,50.03,1021.99,2058.99,3201.21,2939.17,3283.45,600.01,613.96,6.34,0000 0000 0000 0000 000000
2015-12-07 10:41:36,0.15,1.04,0.00,15.91,20.39,24.24,15.03,50.12,1021.99,2058.99,3198.29,2936.94,3281.03,600.10,614.03,6.39,0000 0000 0000 0000 000000
2015-12-07 10:46:38,0.15,1.05,0.00,15.94,20.39,24.18,15.02,50.11,1021.99,2058.99,3195.37,2934.77,3278.57,599.91,613.67,6.44,0000 0000 0000 0000 000000
2015-12-07 10:51:39,0.15,1.06,0.00,15.95,20.39,24.13,15.03,50.10,1021.99,2058.99,3192.38,2932.56,3276.14,599.98,613.77,6.49,0000 0000 0000 0000 000000
2015-12-07 10:56:40,0.15,1.06,0.00,15.95,20.39,24.16,15.12,50.13,1021.99,2058.99,3189.38,2930.36,3273.69,600.47,614.18,6.55,0000 0000 0000 0000 000000
2015-12-07 11:01:41,0.15,1.07,0.00,15.96,20.38,24.14,15.00,50.12,1021.99,2058.99,3186.44,2928.20,3271.26,599.84,613.69,6.60,0000 0000 0000 0000 000000
2015-12-07 11:06:43,0.15,1.08,0.00,15.93,20.38,24.09,14.99,50.10,1021.99,2059.00,3183.41,2925.94,3268.72,599.96,613.80,6.65,0000 0000 0000 0000 000000
2015-12-07 11:11:44,0.15,1.09,0.00,15.87,20.37,24.16,15.03,50.18,1021.99,2059.00,3180.44,2923.58,3266.14,599.98,613.94,6.70,0000 0000 0000 0000 000000
2015-12-07 11:16:46,0.16,1.10,0.00,15.88,20.37,24.23,15.11,50.23,1022.01,2059.00,3177.39,2921.32,3263.58,600.16,614.13,6.75,0000 0000 0000 0000 000000
2015-12-07 11:21:47,0.16,1.10,0.00,15.93,20.37,24.24,15.06,50.11,1022.00,2059.00,3174.43,2919.10,3261.16,600.04,613.86,6.80,0000 0000 0000 0000 000000
2015-12-07 11:26:48,0.15,1.11,0.00,15.93,20.37,24.13,15.03,50.09,1021.99,2059.00,3171.29,2916.77,3258.66,599.72,613.62,6.85,0000 0000 0000 0000 000000
2015-12-07 11:31:50,0.16,1.12,0.00,15.91,20.37,24.22,15.09,50.16,1021.99,2059.00,3168.16,2914.46,3256.14,600.08,614.01,6.90,0000 0000 0000 0000 000000
2015-12-07 11:36:51,0.15,1.13,0.00,15.89,20.37,24.25,15.10,50.22,1022.00,2059.00,3165.32,2912.31,3253.54,600.29,614.16,6.95,0000 0000 0000 0000 000000
2015-12-07 11:41:53,0.17,1.14,0.00,15.86,20.37,24.20,15.07,50.19,1021.99,2059.00,3162.30,2909.96,3250.88,600.01,613.93,7.00,0000 0000 0000 0000 000000
2015-12-07 11:46:54,0.18,1.15,0.00,15.81,20.37,24.13,15.12,50.18,1021.99,2058.99,3158.83,2907.38,3247.96,600.42,614.52,7.05,0000 0000 0000 0000 000000
2015-12-07 11:51:55,0.18,1.16,0.00,15.80,20.37,24.17,15.08,50.13,1021.97,2058.99,3155.12,2904.86,3245.31,599.98,614.07,7.10,0000 0000 0000 0000 000000
2015-12-07 11:56:57,0.43,1.17,0.00,15.86,20.37,24.14,15.04,50.16,1021.94,2058.99,3148.67,2900.98,3241.04,600.02,614.14,7.15,0000 0000 0000 0000 000000
2015-12-07 12:01:58,0.30,1.19,0.00,15.89,20.36,24.16,15.03,50.08,1021.97,2058.99,3138.74,2895.38,3234.79,600.15,614.01,7.20,0000 0000 0000 0000 000000
2015-12-07 12:06:59,0.16,1.20,0.00,15.85,20.34,24.10,15.08,50.19,1021.95,2058.99,3135.43,2893.08,3232.28,600.53,614.54,7.25,0000 0000 0000 0000 000000
2015-12-07 12:12:01,0.33,1.21,0.00,15.85,20.34,24.13,15.06,50.16,1021.90,2058.99,3129.64,2889.44,3228.34,600.21,614.16,7.30,0000 0000 0000 0000 000000
2015-12-07 12:17:02,0.36,1.23,0.00,15.82,20.34,24.13,15.05,50.06,1021.73,2058.99,3121.15,2884.34,3222.91,599.90,613.84,7.35,0000 0000 0000 0000 000000
2015-12-07 12:22:04,0.25,1.25,0.00,15.78,20.32,24.16,15.09,50.07,1021.68,2058.99,3115.56,2880.70,3218.94,600.09,614.05,7.40,0000 0000 0000 0000 000000
2015-12-07 12:27:05,0.23,1.26,0.00,15.79,20.32,24.14,15.03,50.16,1021.63,2058.99,3111.11,2877.78,3215.50,599.93,613.85,7.45,0000 0000 0000 0000 000000
2015-12-07 12:32:06,0.27,1.27,0.00,15.82,20.32,24.13,15.04,50.14,1021.72,2058.99,3105.87,2874.23,3211.60,599.72,613.64,7.50,0000 0000 0000 0000 000000
2015-12-07 12:37:08,0.28,1.29,0.00,15.82,20.32,24.10,15.15,50.23,1021.69,2058.99,3100.37,2870.50,3207.45,600.30,614.26,7.55,0000 0000 0000 0000 000000
2015-12-07 12:42:09,0.27,1.30,0.00,15.81,20.32,24.12,15.09,50.25,1021.78,2058.99,3094.83,2866.72,3203.27,600.27,614.19,7.60,0000 0000 0000 0000 000000
2015-12-07 12:47:11,0.29,1.31,0.00,15.80,20.32,24.12,15.08,50.16,1021.76,2058.99,3089.18,2862.88,3199.00,599.84,613.81,7.65,0000 0000 0000 0000 000000
2015-12-07 12:52:12,0.27,1.33,0.00,15.78,20.32,24.14,15.05,50.23,1021.69,2058.99,3083.55,2859.10,3194.84,600.01,614.02,7.70,0000 0000 0000 0000 000000
2015-12-07 12:57:14,0.27,1.34,0.00,15.72,20.32,24.15,15.10,50.23,1021.62,2058.99,3078.23,2855.48,3190.84,599.91,613.94,7.75,0000 0000 0000 0000 000000
2015-12-07 13:02:15,0.23,1.35,0.00,15.73,20.32,24.14,15.11,50.28,1021.65,2058.99,3073.59,2852.26,3187.27,599.75,613.78,7.80,0000 0000 0000 0000 000000